TimeCST,TemperatureF,Dew PointF,Humidity,Sea Level PressureIn,VisibilityMPH,Wind Direction,Wind SpeedMPH,Gust SpeedMPH,PrecipitationIn,Events,Conditions,WindDirDegrees,DateUTC
12:55 AM,42.8,39.2,87,29.81,3.0,North,6.9,-,N/A,Rain,Light Rain,360,2013-02-13 06:55:00
1:55 AM,41.0,41.0,100,29.80,3.0,North,9.2,-,N/A,Rain,Light Rain,350,2013-02-13 07:55:00
2:15 AM,42.8,41.0,93,29.81,2.5,North,9.2,-,N/A,,Overcast,350,2013-02-13 08:15:00
2:35 AM,41.0,41.0,100,29.80,2.5,North,10.4,-,N/A,,Overcast,360,2013-02-13 08:35:00
2:55 AM,41.0,41.0,100,29.80,-9999.0,North,9.2,-,N/A,,Overcast,360,2013-02-13 08:55:00
3:15 AM,41.0,41.0,100,29.79,4.0,North,9.2,-,N/A,,Overcast,360,2013-02-13 09:15:00
3:35 AM,41.0,41.0,100,29.80,3.0,North,10.4,-,N/A,,Overcast,350,2013-02-13 09:35:00
3:55 AM,41.0,39.2,93,29.80,-9999.0,North,11.5,-,N/A,,Overcast,350,2013-02-13 09:55:00
4:15 AM,41.0,39.2,93,29.81,3.0,North,11.5,-,N/A,,Overcast,350,2013-02-13 10:15:00
4:35 AM,39.2,39.2,100,29.81,4.0,North,16.1,-,N/A,,Overcast,360,2013-02-13 10:35:00
4:55 AM,39.2,39.2,100,29.83,8.0,NNW,11.5,-,N/A,,Overcast,340,2013-02-13 10:55:00
5:55 AM,39.2,37.4,93,29.86,5.0,NNW,10.4,-,N/A,,Drizzle,330,2013-02-13 11:55:00
6:55 AM,39.2,37.4,93,29.89,5.0,NNW,6.9,-,N/A,,Drizzle,340,2013-02-13 12:55:00
7:55 AM,39.2,37.4,93,29.92,6.0,NNW,8.1,-,N/A,,Overcast,340,2013-02-13 13:55:00
8:55 AM,39.2,37.4,93,29.95,6.0,NW,6.9,-,N/A,,Overcast,320,2013-02-13 14:55:00
9:55 AM,41.0,39.2,93,29.96,6.0,NW,8.1,-,N/A,,Overcast,310,2013-02-13 15:55:00
10:55 AM,41.0,37.4,87,30.00,6.0,NW,9.2,-,N/A,,Overcast,310,2013-02-13 16:55:00
11:55 AM,42.8,39.2,87,30.01,8.0,NNW,8.1,-,N/A,,Overcast,330,2013-02-13 17:55:00
12:55 PM,41.0,39.2,93,30.00,8.0,WNW,4.6,-,N/A,,Overcast,290,2013-02-13 18:55:00
1:55 PM,42.8,39.2,87,29.97,10.0,West,4.6,-,N/A,,Overcast,260,2013-02-13 19:55:00
2:55 PM,44.6,39.2,81,29.97,10.0,West,6.9,-,N/A,,Overcast,260,2013-02-13 20:55:00
3:55 PM,44.6,39.2,81,29.97,10.0,SSW,3.5,-,N/A,,Overcast,200,2013-02-13 21:55:00
4:55 PM,44.6,39.2,81,29.97,10.0,SW,4.6,-,N/A,,Overcast,230,2013-02-13 22:55:00
5:55 PM,41.0,35.6,81,29.98,10.0,SW,3.5,-,N/A,,Scattered Clouds,220,2013-02-13 23:55:00
6:55 PM,39.2,35.6,87,29.99,10.0,SSE,3.5,-,N/A,,Scattered Clouds,160,2013-02-14 00:55:00
7:55 PM,37.4,35.6,93,30.00,10.0,SE,3.5,-,N/A,,Scattered Clouds,140,2013-02-14 01:55:00
8:55 PM,37.4,35.6,93,30.00,10.0,Calm,Calm,-,N/A,,Partly Cloudy,0,2013-02-14 02:55:00
9:55 PM,37.4,35.6,93,30.01,10.0,South,3.5,-,N/A,,Partly Cloudy,170,2013-02-14 03:55:00
10:55 PM,37.4,35.6,93,30.02,10.0,SSE,4.6,-,N/A,,Partly Cloudy,160,2013-02-14 04:55:00
11:55 PM,37.4,35.6,93,30.02,10.0,South,3.5,-,N/A,,Clear,170,2013-02-14 05:55:00